This demonstration page uses our WeatherBlox Daily Observations layout. Learn more.

Left ArrowRight Arrow

Hourly Observations for January 24, 2022

Temp ( °F °C ) Dew Point ( °F °C ) Humidity (%) Winds ( mph kmh ) Pressure ( in mb ) Visibility ( mi km ) Precip ( " mm )
12:53 am 00:53 Cloudy 11 -11.7 1 -17.2 64 64 SSW 7 11 29.86 1011 10 16 0.00 0.00
1:53 am 01:53 Cloudy with Light Snow 11 -11.7 3 -16.1 70 70 SSW 7 11 29.82 1010 5 8 0.00 0.00
2:08 am 02:08 Cloudy with Light Snow 11 -11.7 4 -15.6 73 73 SSW 6 9 29.85 1011 2 3 0.00 0.00
2:22 am 02:22 Cloudy with Light Snow 11 -11.7 5 -15 77 77 SSW 7 11 29.84 1010 3 4 0.00 0.00
2:41 am 02:41 Cloudy with Light Snow 12 -11.1 6 -14.4 77 77 SSW 7 11 29.83 1010 2 2 0.00 0.00
2:50 am 02:50 Cloudy with Light Snow 12 -11 7 -14 79 79 SSW 7 11 29.83 1010 2 3 0.00 0.00
2:53 am 02:53 Cloudy with Light Snow 12 -11.1 7 -13.9 80 80 SSW 7 11 29.79 1009 2 3 0.00 0.00
3:20 am 03:20 Cloudy with Light Snow 12 -11.1 7 -13.9 80 80 S 7 11 29.79 1009 2 3 0.00 0.00
3:31 am 03:31 Cloudy with Light Snow 13 -10.6 8 -13.3 81 81 S 7 11 29.78 1008 3 4 0.00 0.00
3:53 am 03:53 Cloudy with Light Snow 13 -10.6 8 -13.3 81 81 S 6 9 29.74 1007 3 5 0.00 0.00
4:12 am 04:12 Cloudy with Light Snow 14 -10 9 -12.8 80 80 S 6 9 29.75 1008 3 4 0.01 0.25
4:20 am 04:20 Cloudy with Light Snow 14 -10 9 -12.8 80 80 S 8 13 29.74 1007 3 5 0.01 0.25
4:27 am 04:27 Cloudy with Light Snow 14 -10 9 -12.8 80 80 S 8 13 29.74 1007 3 4 0.01 0.25
4:35 am 04:35 Cloudy with Light Snow 14 -10 9 -12.8 80 80 S 6 9 29.73 1007 4 6 0.01 0.25
4:44 am 04:44 Cloudy with Light Snow 14 -10 9 -12.8 80 80 S 6 9 29.73 1007 2 3 0.01 0.25
4:53 am 04:53 Cloudy with Light Snow 14 -10 9 -12.8 80 80 S 6 9 29.70 1006 2 3 0.01 0.25
5:01 am 05:01 Cloudy with Light Snow 14 -10 9 -12.8 80 80 S 7 11 29.72 1007 2 3 0.00 0.00
5:11 am 05:11 Cloudy with Light Snow 14 -10 9 -12.8 80 80 S 7 11 29.72 1007 2 2 0.01 0.25
5:53 am 05:53 Cloudy with Light Snow 15 -9.4 10 -12.2 80 80 SSW 7 11 29.69 1005 1 2 0.02 0.51
6:10 am 06:10 Cloudy with Light Snow 15 -9.4 10 -12.2 80 80 SSW 6 9 29.71 1006 1 2 0.00 0.00
6:28 am 06:28 Cloudy with Light Snow 15 -9.4 10 -12.2 80 80 SSW 6 9 29.71 1006 2 3 0.00 0.00
6:42 am 06:42 Cloudy with Light Snow 15 -9.4 11 -11.7 84 84 SSW 6 9 29.70 1006 1 2 0.01 0.25
6:53 am 06:53 Cloudy with Light Snow 15 -9.4 11 -11.7 84 84 SSW 6 9 29.67 1005 1 2 0.01 0.25
7:13 am 07:13 Cloudy with Light Snow 15 -9.4 11 -11.7 84 84 SW 5 7 29.70 1006 3 4 0.00 0.00
7:22 am 07:22 Cloudy with Light Snow 15 -9.4 11 -11.7 84 84 SSW 6 9 29.69 1005 1 2 0.00 0.00
7:29 am 07:29 Mostly Cloudy with Light Snow 15 -9.4 11 -11.7 84 84 SW 5 7 29.69 1005 1 1 0.00 0.00
7:45 am 07:45 Cloudy with Light Snow 16 -8.9 11 -11.7 80 80 SSW 6 9 29.69 1005 1 2 0.01 0.25
7:53 am 07:53 Cloudy with Light Snow 16 -8.9 12 -11.1 84 84 SW 5 7 29.67 1005 1 1 0.01 0.25
8:03 am 08:03 Cloudy with Light Snow 16 -8.9 12 -11.1 84 84 SW 5 7 29.69 1005 1 2 0.00 0.00
8:14 am 08:14 Cloudy with Light Snow 16 -8.9 12 -11.1 84 84 WSW 3 6 29.69 1005 1 1 0.00 0.00
8:53 am 08:53 Mostly Cloudy with Light Snow 17 -8.3 12 -11.1 80 80 W 6 9 29.66 1005 1 1 0.01 0.25
9:31 am 09:31 Cloudy with Light Snow 18 -7.8 13 -10.6 81 81 WNW 7 11 29.68 1005 1 2 0.00 0.00
9:49 am 09:49 Cloudy with Light Snow 18 -8 12 -11 79 79 W 7 11 29.69 1005 3 5 0.00 0.00
9:53 am 09:53 Cloudy with Light Snow 19 -7.2 13 -10.6 77 77 WNW 7 11 29.66 1005 4 6 0.00 0.00
10:00 am 10:00 Cloudy with Haze 18 -7.8 13 -10.6 81 81 WNW 7 11 29.68 1005 5 8 0.00 0.00
10:53 am 10:53 Cloudy 20 -6.7 14 -10 78 78 NW 7 11 29.67 1005 10 16 0.00 0.00
11:53 am 11:53 Cloudy 21 -6.1 12 -11.1 68 68 NW 10 17 29.69 1005 10 16 0.00 0.00
12:14 pm 12:14 Cloudy 21 -6.1 11 -11.7 65 65 NW 12 19 29.71 1006 10 16 0.00 0.00
12:37 pm 12:37 Cloudy with Light Snow 20 -6.7 11 -11.7 68 68 NNW 13 20 29.72 1007 6 10 0.00 0.00
12:53 pm 12:53 Cloudy with Light Snow 20 -6.7 11 -11.7 68 68 N 10 17 29.70 1006 4 6 0.00 0.00
1:18 pm 13:18 Cloudy 20 -6.7 10 -12.2 65 65 NNW 8 13 29.72 1007 10 16 0.00 0.00
1:53 pm 13:53 Cloudy 20 -6.7 10 -12.2 65 65 NNW 10 17 29.72 1007 10 16 0.00 0.00
2:53 pm 14:53 Cloudy 19 -7.2 9 -12.8 65 65 NW 13 20 29.77 1008 10 16 0.00 0.00
3:53 pm 15:53 Sunny 18 -7.8 6 -14.4 59 59 NW 12 19 29.81 1010 10 16 0.00 0.00
4:53 pm 16:53 Sunny 16 -8.9 4 -15.6 59 59 NW 9 15 29.85 1011 10 16 0.00 0.00
5:53 pm 17:53 Clear 14 -10 3 -16.1 61 61 WNW 7 11 29.89 1012 10 16 0.00 0.00
6:53 pm 18:53 Clear 13 -10.6 3 -16.1 64 64 W 8 13 29.93 1014 10 16 0.00 0.00
7:53 pm 19:53 Clear 12 -11.1 3 -16.1 67 67 WNW 9 15 29.96 1015 10 16 0.00 0.00
8:53 pm 20:53 Clear 11 -11.7 2 -16.7 67 67 W 7 11 29.99 1016 10 16 0.00 0.00
9:53 pm 21:53 Clear 10 -12.2 1 -17.2 67 67 WNW 7 11 30.01 1016 10 16 0.00 0.00
10:53 pm 22:53 Clear 10 -12.2 1 -17.2 67 67 WNW 8 13 30.04 1017 10 16 0.00 0.00
11:53 pm 23:53 Clear 9 -12.8 1 -17.2 70 70 WNW 8 13 30.06 1018 10 16 0.00 0.00

Powered by AerisWeather